Zurück zum Katalog

STARLINK-32678

AktivKommunikationVLEO
NORAD 62309·PAYLOAD·🇺🇸 United States

Gestartet Dec 13, 2024 von Vandenberg Space Force Base

Loading…

Nächste Überflüge (nächste 24 Stunden)

TLE

AktuellSource: CelesTrak SupGP

Epoche: Sep 14, 2026, 22:42 UTC

1 62309C 24239J   26257.94631944  .00053688  00000+0  10705-2 0  2573
2 62309  53.1531  15.5546 0002147 280.2009 348.9469 15.46251369    17

Verfolge STARLINK-32678 in Echtzeit mit AllMySat

Download on the App Store